• In Netherlands
  • List of Countries
  • For 7 days
  • Water Temperature
  • Satellite Maps
  • Weather Map
  • Weather Widgets
  • user-avatar
    Login

    Hourly Weather Naftalan

    Today, 24 April, Monday

    Time Temperature Precipitation Wind Pressure Humidity
    00:00 +13°C° 0 mm 2 mps 756 mmHg 90%
    01:00 +12°C° 0 mm 3 mps 756 mmHg 89%
    02:00 +12°C° 0 mm 4 mps 755 mmHg 89%
    03:00 +11°C° 0 mm 6 mps 756 mmHg 88%
    04:00 +12°C° 0 mm 7 mps 756 mmHg 85%
    05:00 +12°C° 0 mm 7 mps 757 mmHg 82%
    06:00 +13°C° 0 mm 8 mps 757 mmHg 79%
    07:00 +16°C° 0 mm 8 mps 758 mmHg 68%
    08:00 +18°C° 0 mm 7 mps 758 mmHg 57%
    09:00 +21°C° 0 mm 7 mps 759 mmHg 46%
    10:00 +22°C° 0 mm 6 mps 759 mmHg 43%
    11:00 +23°C° 0 mm 6 mps 760 mmHg 39%
    12:00 +24°C° 0 mm 6 mps 760 mmHg 35%
    13:00 +23°C° 0.1 mm 7 mps 760 mmHg 36%
    14:00 +22°C° 0.1 mm 8 mps 761 mmHg 37%
    15:00 +21°C° 0.1 mm 9 mps 761 mmHg 37%
    16:00 +20°C° 0 mm 8 mps 762 mmHg 41%
    17:00 +17°C° 0 mm 7 mps 762 mmHg 45%
    18:00 +15°C° 0 mm 6 mps 763 mmHg 48%
    19:00 +14°C° 0 mm 5 mps 764 mmHg 51%
    20:00 +13°C° 0 mm 4 mps 764 mmHg 53%
    21:00 +12°C° 0 mm 3 mps 765 mmHg 55%
    22:00 +11°C° 0 mm 3 mps 765 mmHg 57%
    23:00 +12°C° 0 mm 2 mps 765 mmHg 59%

    Tomorrow, 25 April, Tuesday

    Time Temperature Precipitation Wind Pressure Humidity
    00:00 +10°C° 0 mm 2 mps 765 mmHg 60%
    01:00 +10°C° 0 mm 2 mps 766 mmHg 62%
    02:00 +9°C° 0 mm 2 mps 766 mmHg 64%
    03:00 +9°C° 0 mm 2 mps 766 mmHg 67%
    04:00 +10°C° 0 mm 2 mps 766 mmHg 65%
    05:00 +10°C° 0 mm 2 mps 767 mmHg 64%
    06:00 +12°C° 0 mm 2 mps 767 mmHg 63%
    07:00 +13°C° 0 mm 3 mps 768 mmHg 56%
    08:00 +15°C° 0 mm 4 mps 768 mmHg 48%
    09:00 +18°C° 0 mm 4 mps 769 mmHg 41%
    10:00 +19°C° 0 mm 6 mps 769 mmHg 41%
    11:00 +20°C° 0 mm 7 mps 769 mmHg 41%
    12:00 +20°C° 0 mm 8 mps 769 mmHg 41%
    13:00 +19°C° 0 mm 9 mps 770 mmHg 44%
    14:00 +18°C° 0 mm 10 mps 770 mmHg 48%
    15:00 +17°C° 0 mm 10 mps 770 mmHg 51%
    16:00 +14°C° 0 mm 10 mps 771 mmHg 56%
    17:00 +13°C° 0 mm 10 mps 771 mmHg 60%
    18:00 +11°C° 0 mm 9 mps 772 mmHg 64%
    19:00 +11°C° 0 mm 8 mps 773 mmHg 63%
    20:00 +10°C° 0 mm 8 mps 774 mmHg 63%
    21:00 +9°C° 0 mm 7 mps 775 mmHg 62%
    22:00 +10°C° 0 mm 6 mps 775 mmHg 59%
    23:00 +10°C° 0 mm 5 mps 775 mmHg 56%

    Day after tomorrow, 26 April, Wednesday

    Time Temperature Precipitation Wind Pressure Humidity
    00:00 +10°C° 0 mm 5 mps 775 mmHg 53%
    01:00 +11°C° 0 mm 4 mps 776 mmHg 54%
    02:00 +11°C° 0 mm 4 mps 776 mmHg 54%
    03:00 +11°C° 0 mm 4 mps 776 mmHg 55%
    04:00 +11°C° 0 mm 4 mps 777 mmHg 55%
    05:00 +11°C° 0 mm 4 mps 777 mmHg 55%
    06:00 +11°C° 0 mm 4 mps 777 mmHg 55%
    07:00 +12°C° 0 mm 4 mps 778 mmHg 52%
    08:00 +13°C° 0 mm 5 mps 778 mmHg 50%
    09:00 +14°C° 0 mm 5 mps 778 mmHg 47%
    10:00 +15°C° 0 mm 5 mps 778 mmHg 46%
    11:00 +15°C° 0 mm 5 mps 778 mmHg 44%
    12:00 +16°C° 0 mm 5 mps 778 mmHg 43%
    13:00 +16°C° 0 mm 5 mps 777 mmHg 43%
    14:00 +16°C° 0 mm 5 mps 777 mmHg 43%
    15:00 +16°C° 0 mm 5 mps 777 mmHg 43%
    16:00 +15°C° 0 mm 4 mps 777 mmHg 48%
    17:00 +14°C° 0 mm 4 mps 777 mmHg 53%
    18:00 +13°C° 0 mm 4 mps 777 mmHg 58%
    19:00 +12°C° 0 mm 3 mps 777 mmHg 64%
    20:00 +11°C° 0 mm 3 mps 777 mmHg 70%
    21:00 +9°C° 0 mm 2 mps 777 mmHg 75%
    22:00 +9°C° 0 mm 2 mps 777 mmHg 78%
    23:00 +8°C° 0 mm 2 mps 777 mmHg 80%

    27 April, Thursday

    Time Temperature Precipitation Wind Pressure Humidity
    00:00 +9°C° 0 mm 1 mps 777 mmHg 82%
    01:00 +8°C° 0 mm 1 mps 776 mmHg 83%
    02:00 +7°C° 0 mm 2 mps 776 mmHg 84%
    03:00 +7°C° 0 mm 2 mps 776 mmHg 85%
    04:00 +8°C° 0 mm 2 mps 776 mmHg 82%
    05:00 +10°C° 0 mm 1 mps 776 mmHg 79%
    06:00 +11°C° 0 mm 1 mps 776 mmHg 76%
    07:00 +13°C° 0 mm 1 mps 776 mmHg 67%
    08:00 +14°C° 0 mm 1 mps 776 mmHg 58%
    09:00 +16°C° 0 mm 1 mps 776 mmHg 48%
    10:00 +17°C° 0 mm 2 mps 776 mmHg 45%
    11:00 +18°C° 0 mm 2 mps 775 mmHg 42%
    12:00 +19°C° 0 mm 3 mps 775 mmHg 38%
    13:00 +20°C° 0 mm 3 mps 774 mmHg 39%
    14:00 +20°C° 0 mm 4 mps 774 mmHg 39%
    15:00 +20°C° 0 mm 4 mps 773 mmHg 39%
    16:00 +18°C° 0 mm 4 mps 774 mmHg 44%
    17:00 +17°C° 0 mm 3 mps 774 mmHg 50%
    18:00 +16°C° 0 mm 3 mps 774 mmHg 55%
    19:00 +14°C° 0 mm 2 mps 774 mmHg 61%
    20:00 +13°C° 0 mm 2 mps 774 mmHg 66%
    21:00 +12°C° 0 mm 2 mps 774 mmHg 72%
    22:00 +11°C° 0 mm 1 mps 774 mmHg 73%
    23:00 +11°C° 0 mm 1 mps 774 mmHg 75%

    28 April, Friday

    Time Temperature Precipitation Wind Pressure Humidity
    00:00 +10°C° 0 mm 1 mps 774 mmHg 76%
    01:00 +10°C° 0 mm 1 mps 773 mmHg 78%
    02:00 +10°C° 0 mm 1 mps 773 mmHg 80%
    03:00 +9°C° 0 mm 1 mps 773 mmHg 82%
    04:00 +10°C° 0 mm 1 mps 773 mmHg 78%
    05:00 +10°C° 0 mm 2 mps 773 mmHg 75%
    06:00 +12°C° 0 mm 2 mps 773 mmHg 72%
    07:00 +14°C° 0 mm 2 mps 773 mmHg 64%
    08:00 +16°C° 0 mm 3 mps 773 mmHg 57%
    09:00 +18°C° 0 mm 3 mps 773 mmHg 50%
    10:00 +19°C° 0 mm 3 mps 772 mmHg 45%
    11:00 +21°C° 0 mm 3 mps 772 mmHg 41%
    12:00 +22°C° 0 mm 3 mps 771 mmHg 37%
    13:00 +22°C° 0 mm 4 mps 771 mmHg 37%
    14:00 +22°C° 0 mm 4 mps 770 mmHg 37%
    15:00 +22°C° 0 mm 4 mps 770 mmHg 37%
    16:00 +21°C° 0 mm 4 mps 770 mmHg 42%
    17:00 +19°C° 0 mm 3 mps 769 mmHg 47%
    18:00 +18°C° 0 mm 2 mps 769 mmHg 52%
    19:00 +16°C° 0 mm 2 mps 769 mmHg 57%
    20:00 +15°C° 0 mm 2 mps 769 mmHg 62%
    21:00 +13°C° 0 mm 1 mps 770 mmHg 66%
    22:00 +13°C° 0 mm 1 mps 769 mmHg 66%
    23:00 +13°C° 0 mm 2 mps 769 mmHg 66%

    29 April, Saturday

    Time Temperature Precipitation Wind Pressure Humidity
    00:00 +13°C° 0 mm 2 mps 768 mmHg 66%
    01:00 +13°C° 0 mm 2 mps 768 mmHg 64%
    02:00 +13°C° 0 mm 2 mps 768 mmHg 61%
    03:00 +13°C° 0 mm 2 mps 767 mmHg 58%
    04:00 +13°C° 0 mm 3 mps 767 mmHg 58%
    05:00 +13°C° 0 mm 3 mps 768 mmHg 57%
    06:00 +14°C° 0 mm 3 mps 768 mmHg 56%
    07:00 +17°C° 0 mm 3 mps 767 mmHg 50%
    08:00 +19°C° 0 mm 3 mps 767 mmHg 43%
    09:00 +21°C° 0 mm 3 mps 767 mmHg 36%
    10:00 +24°C° 0 mm 3 mps 767 mmHg 34%
    11:00 +25°C° 0 mm 2 mps 766 mmHg 32%
    12:00 +26°C° 0 mm 1 mps 766 mmHg 31%
    13:00 +26°C° 0 mm 2 mps 765 mmHg 32%
    14:00 +27°C° 0 mm 3 mps 765 mmHg 33%
    15:00 +27°C° 0 mm 4 mps 765 mmHg 34%
    16:00 +25°C° 0 mm 4 mps 765 mmHg 40%
    17:00 +22°C° 0 mm 4 mps 765 mmHg 47%
    18:00 +20°C° 0 mm 4 mps 765 mmHg 53%
    19:00 +19°C° 0 mm 3 mps 765 mmHg 55%
    20:00 +17°C° 0 mm 3 mps 765 mmHg 56%
    21:00 +16°C° 0 mm 2 mps 765 mmHg 57%
    22:00 +15°C° 0 mm 2 mps 765 mmHg 59%
    23:00 +15°C° 0 mm 1 mps 765 mmHg 60%
    Show more